SCP
2 2 2 2 2 2 2 3 3 3 2 2 1 1 1 1 1 0 0 0 0 0 0 0 0 0 0 0 0 0 0 0 0 0 0 0 0 0 0 0 0 1 1
2 2 2 2 2 3 2 2 2 2 2 1 1 1 1 1 1 0 0 0 0 0 0 0 0 0 0 0 0 0 0 0 0 0 0 0 0 0 0 0 0 1 1
2 2 2 2 2 2 2 2 2 2 2 1 1 1 1 1 1 1 1 0 0 0 0 0 0 0 0 0 0 0 0 0 0 0 0 0 0 0 0 0 0 1 1
2 2 2 2 2 2 2 2 2 2 2 2 1 1 1 1 1 1 1 1 0 0 0 0 0 0 0 0 0 0 0 0 0 0 0 0 0 0 0 0 0 1 1
1 1 1 2 2 2 2 2 2 3 2 2 1 1 1 1 1 1 1 1 1 1 0 0 0 0 0 0 0 0 0 0 0 0 0 0 0 0 0 0 0 0 0
1 1 1 2 2 2 1 2 2 2 2 2 1 1 1 1 1 1 1 0 1 1 1 1 0 0 0 0 0 0 0 0 0 0 0 0 0 0 0 0 0 0 0
1 1 1 1 2 1 1 1 2 2 2 1 1 1 1 1 1 0 0 0 1 1 1 1 1 1 0 0 1 1 0 0 0 0 0 0 0 0 0 0 0 0 0
1 1 1 1 1 1 1 2 2 2 1 1 2 2 2 1 1 1 1 1 1 1 1 1 1 1 1 1 0 0 0 0 0 0 0 0 0 0 0 0 0 0 0
1 1 1 1 1 2 2 2 2 2 1 1 2 2 2 1 1 1 1 1 1 2 2 2 2 1 1 1 0 0 0 0 0 0 0 0 0 0 0 0 0 0 0
1 1 1 1 1 2 2 2 2 1 1 1 2 2 2 1 1 1 2 2 2 3 2 2 1 1 1 1 0 0 0 0 0 0 0 0 0 0 0 0 0 0 0
1 1 1 1 1 1 1 1 1 1 1 1 1 2 1 1 1 2 2 3 3 3 2 2 1 1 1 1 0 0 0 0 0 0 0 0 0 0 0 0 0 0 0
1 1 1 1 1 1 1 1 1 1 1 1 2 2 2 2 2 2 2 3 3 3 2 1 1 1 1 0 0 0 0 0 0 0 0 0 0 0 0 0 0 0 0
1 1 1 1 1 1 2 2 2 2 2 2 2 2 2 2 2 2 3 3 3 3 2 1 1 1 1 0 0 0 0 0 0 0 0 0 0 0 0 0 0 0 0
1 1 1 1 1 2 2 3 3 3 3 3 3 3 3 3 3 3 3 3 3 3 2 2 1 1 1 0 0 1 1 0 0 0 0 0 0 0 0 0 0 0 0
1 1 1 2 2 2 3 3 4 4 4 4 4 4 4 4 4 4 4 4 4 3 3 2 1 1 1 0 0 1 1 1 1 1 1 1 0 0 0 0 0 0 0
2 2 2 2 2 3 3 4 5 5 5 5 5 5 5 5 5 5 5 5 4 3 3 2 2 1 1 0 0 0 0 1 1 1 1 1 1 0 0 0 0 0 0
3 3 3 3 3 3 4 5 5 5 5 5 5 6 6 5 5 5 6 6 5 4 3 2 2 1 1 0 0 0 0 0 1 1 1 1 1 1 1 0 0 0 0
3 3 4 4 3 3 4 5 5 5 5 5 5 6 5 5 5 6 6 6 6 5 3 2 2 1 1 0 0 0 0 0 1 1 2 2 1 1 1 1 1 0 0
2 3 3 3 3 2 3 4 5 5 5 5 5 5 5 4 5 5 6 6 5 4 3 2 2 2 1 1 0 0 0 0 1 1 1 1 1 1 1 1 1 1 1
2 2 2 2 2 3 3 3 4 5 5 5 5 5 5 4 4 4 5 4 4 3 2 2 2 2 1 1 0 0 0 0 1 1 1 1 1 0 0 1 1 1 1
1 2 2 2 2 3 3 3 3 3 3 4 4 4 4 3 3 3 3 3 3 2 2 2 2 2 2 1 0 0 0 0 1 1 1 1 0 0 0 0 1 1 1
1 1 2 2 2 2 2 2 2 2 2 2 2 2 2 2 2 2 2 3 2 2 2 2 2 2 2 1 0 0 0 0 0 1 1 0 0 0 0 0 0 0 0
1 1 2 2 2 1 2 2 2 2 1 1 1 1 1 1 1 1 2 2 2 2 2 2 2 3 3 2 1 0 0 0 0 0 0 0 0 0 0 0 0 0 0
1 1 1 1 1 1 1 1 1 1 1 1 1 1 1 1 1 1 2 2 2 1 2 2 3 4 4 3 2 2 1 1 1 1 1 1 1 1 1 1 1 1 1
0 1 1 1 1 1 1 1 1 1 1 1 1 1 1 1 1 1 1 1 1 1 1 2 3 4 3 2 1 2 2 2 1 1 1 1 1 1 1 1 1 2 2
0 0 0 0 0 0 0 0 0 0 0 1 0 0 1 1 1 1 1 1 1 1 1 1 2 2 2 1 1 1 1 1 1 1 1 1 1 1 2 2 2 2 2
Wind_Speed
10 10 10 9 10 10 10 10 10 9 8 7 7 6 6 5 5 5 6 5 4 4 1 2 3 0 2 2 2 2 0 1 3 4 3 2 2 0 0 1 1 0 1
12 11 11 10 11 11 11 11 10 10 9 7 5 5 5 5 5 4 5 5 5 4 3 2 2 2 2 2 1 1 3 2 2 4 4 2 4 3 1 0 0 2 1
14 14 12 12 12 12 12 10 11 10 9 9 6 6 5 5 5 6 5 5 5 4 2 3 1 1 1 2 1 1 2 2 1 3 4 4 2 0 3 1 1 1 2
14 14 14 13 13 13 12 12 11 10 10 10 8 9 7 6 6 5 5 6 6 5 5 4 3 1 0 2 2 2 1 3 2 1 1 3 4 5 1 3 2 1 1
15 15 15 14 13 13 12 12 11 11 10 10 9 9 7 6 5 5 6 6 6 6 5 5 4 3 2 1 1 1 2 2 3 2 1 1 1 4 5 3 2 2 2
14 14 14 14 13 13 12 12 12 11 11 11 10 10 8 7 6 7 7 7 6 6 7 6 4 4 2 3 2 2 2 1 2 3 2 2 2 3 3 4 4 4 2
14 14 15 15 14 14 14 13 13 13 12 12 11 10 9 8 8 8 7 6 5 6 7 6 5 4 3 4 3 3 2 2 2 3 2 2 3 3 4 5 5 5 4
14 15 15 15 15 16 15 15 14 14 13 12 11 10 9 8 7 7 6 6 5 5 6 6 6 5 5 5 4 4 3 3 3 3 3 3 3 3 3 4 5 6 4
15 16 16 16 16 16 16 16 15 14 14 13 11 10 10 9 7 7 7 6 5 5 7 7 7 6 6 5 5 4 3 3 5 4 5 5 2 4 3 4 5 6 7
15 16 16 16 16 16 15 15 15 15 14 13 12 10 11 10 8 8 8 6 6 6 7 7 7 7 7 6 6 5 5 5 5 4 4 4 4 3 4 4 5 5 7
16 15 15 15 15 15 16 15 15 14 14 13 12 11 11 11 10 9 9 8 8 8 8 8 8 8 7 7 6 6 5 6 6 5 6 6 5 5 4 4 5 5 6
14 15 15 15 15 16 16 16 15 15 14 13 13 12 11 11 11 10 10 9 9 9 9 8 8 8 8 8 8 8 7 7 7 7 6 7 6 6 7 5 6 6 6
14 14 15 15 15 15 15 16 16 15 15 14 13 13 13 13 12 11 11 10 10 10 9 9 9 9 8 8 8 8 8 8 8 7 8 8 7 8 6 6 7 6 6
12 13 14 14 14 15 15 15 15 15 14 14 14 14 14 13 13 12 11 11 11 10 10 10 10 9 9 9 9 9 9 9 8 8 8 9 9 9 8 7 8 7 8
11 12 13 13 13 14 14 14 14 14 13 14 14 14 13 12 12 12 11 11 11 11 10 10 10 10 9 9 10 9 10 9 9 9 10 10 9 7 7 8 7 7 8
9 10 11 11 12 13 13 13 13 13 13 13 13 13 12 12 12 12 12 11 11 11 10 11 11 11 10 8 8 9 10 9 10 10 10 10 11 12 14 13 12 11 11
4 6 7 8 9 10 11 12 12 11 12 12 11 11 12 12 12 12 12 12 11 11 11 11 11 12 10 9 11 12 11 11 11 11 10 10 10 10 12 14 17 17 18
1 2 3 4 5 6 8 8 9 10 10 11 11 11 11 11 11 11 11 11 10 10 11 11 12 11 11 12 13 12 13 13 13 13 13 13 13 12 12 12 12 13 14
3 2 1 2 3 4 5 7 7 8 9 9 9 10 10 10 10 11 11 10 10 10 10 10 11 12 11 11 13 13 11 12 14 14 14 14 14 13 11 13 14 14 13
5 5 4 4 4 3 4 5 6 6 6 6 6 6 7 8 9 9 9 8 8 9 9 10 10 11 11 10 13 14 10 12 12 12 13 15 17 14 13 14 15 15 14
7 7 7 7 6 5 4 4 3 2 2 2 3 4 5 6 6 6 7 7 8 8 8 9 9 10 10 9 11 14 10 11 12 11 11 11 14 18 17 16 15 16 14
9 9 8 8 8 6 6 5 4 3 2 3 3 3 4 4 4 5 6 6 7 8 8 8 9 8 8 9 10 13 15 13 13 12 12 11 7 12 14 14 16 16 13
10 9 10 10 9 9 7 7 5 4 3 2 3 2 2 2 2 4 5 5 6 7 7 7 8 8 7 7 11 12 14 16 12 12 13 13 11 10 12 17 17 14 12
9 9 10 10 10 9 9 7 6 5 3 3 2 2 2 1 1 2 3 4 4 5 6 6 7 7 6 6 6 5 7 10 12 12 12 14 16 16 16 14 13 13 14
8 8 9 9 9 8 8 7 6 5 4 4 3 2 2 2 0 1 2 3 3 3 5 6 6 7 7 5 5 6 8 8 8 9 10 12 12 12 13 13 13 13 13
7 8 8 9 8 7 7 7 6 5 4 4 3 3 2 2 1 1 1 2 3 3 5 7 8 7 8 9 10 10 11 11 10 9 13 14 14 14 14 13 12 12 13
Wind_Direction
173 171 177 179 176 174 172 172 169 164 164 165 164 163 161 158 151 148 141 147 137 132 129 106 119 79 73 36 23 338 74 338 338 292 266 213 208 127 198 307 309 287 274
172 177 181 181 182 181 179 176 174 174 175 163 159 163 152 158 152 153 147 156 152 155 154 121 152 112 115 111 54 350 330 17 359 316 295 244 178 191 119 179 65 352 304
178 177 182 183 184 185 182 180 178 176 172 159 161 152 150 165 166 168 166 167 168 168 150 160 146 143 196 107 84 348 347 341 10 356 322 312 346 261 156 121 45 345 327
183 180 182 185 185 183 180 177 175 174 168 170 175 174 181 181 175 179 165 168 179 177 173 176 169 194 137 128 197 79 325 307 324 98 354 346 352 309 274 193 163 178 284
184 184 186 185 182 178 176 171 171 172 174 181 179 188 191 182 172 175 161 182 175 184 185 183 177 185 194 137 56 113 307 309 326 333 323 315 232 267 293 302 302 265 253
184 184 183 182 179 176 174 169 171 176 179 184 185 196 189 187 181 185 178 192 182 186 185 188 189 198 188 172 191 208 207 311 342 316 313 302 303 305 302 294 284 293 291
184 182 180 181 179 177 177 175 175 179 182 186 190 192 192 192 196 201 193 206 195 190 181 192 193 198 190 194 200 209 245 227 242 267 289 306 305 313 307 302 308 305 290
183 183 182 182 181 180 179 179 181 182 184 188 191 192 194 202 200 203 211 203 210 195 170 188 194 196 196 200 200 227 211 220 241 257 285 281 275 287 289 301 307 299 294
183 184 184 184 184 183 183 184 184 185 188 190 190 194 198 209 201 186 207 204 199 184 180 190 191 193 198 208 215 234 232 226 239 237 221 250 267 263 275 280 289 299 302
186 187 186 188 188 187 186 188 188 191 192 192 195 194 196 199 196 200 200 195 191 188 186 191 194 196 198 204 221 227 214 231 236 252 271 268 264 265 267 270 273 277 288
189 188 189 190 190 189 187 190 192 194 195 197 197 199 196 195 195 198 195 191 192 189 195 197 199 201 204 207 215 238 222 231 237 238 235 241 266 270 271 264 268 270 275
190 190 190 190 191 192 192 192 195 197 198 197 196 198 198 195 197 198 196 192 192 196 198 200 204 209 210 211 217 228 228 231 237 240 241 244 239 241 261 268 268 271 275
192 191 190 191 194 196 197 198 200 200 199 196 198 198 198 197 201 201 196 195 195 200 200 203 209 214 216 216 219 226 231 235 239 241 242 244 247 247 253 257 267 270 265
196 196 194 195 198 199 200 202 204 203 200 197 198 198 200 199 200 199 197 197 198 200 203 207 213 217 219 220 222 223 229 236 240 241 242 244 244 244 250 251 254 263 273
194 199 201 200 201 202 203 205 205 203 200 198 199 199 198 197 199 198 199 199 201 205 206 211 215 219 221 222 222 227 229 233 240 240 240 242 242 251 253 263 265 263 263
199 198 200 202 204 206 206 204 204 200 196 200 202 197 193 193 196 198 198 200 205 211 211 216 220 222 226 200 206 235 247 242 243 246 245 244 227 227 226 240 252 261 263
201 200 200 202 204 205 203 202 200 193 193 198 200 194 192 193 196 198 199 203 207 211 215 220 224 229 229 197 201 217 243 250 249 249 249 252 248 226 236 227 225 236 241
157 182 195 194 198 199 198 199 192 188 191 196 198 194 195 194 197 201 204 207 211 214 217 222 227 232 231 203 207 212 233 249 251 250 248 250 256 250 244 250 245 243 238
33 52 82 142 157 172 179 179 182 181 190 197 198 195 196 196 196 203 207 209 213 218 221 225 229 234 235 208 207 211 239 243 247 248 248 247 249 243 227 244 253 255 255
41 42 55 71 85 100 135 153 161 170 186 192 192 188 194 199 202 204 207 207 212 222 228 230 232 237 242 218 204 207 241 249 252 249 247 240 240 246 220 237 248 253 256
56 59 58 58 55 63 89 108 116 134 158 168 169 172 185 201 209 209 210 214 217 224 233 241 240 240 245 233 211 209 238 256 259 260 257 252 219 222 224 230 246 252 258
57 62 65 60 53 53 73 78 67 51 76 112 132 159 179 200 199 210 215 219 227 229 231 237 246 244 238 238 229 214 225 249 263 266 268 270 240 219 222 227 241 245 249
60 62 70 67 59 53 56 64 57 48 57 89 117 132 145 174 206 216 221 224 224 243 247 246 250 251 248 235 224 226 229 235 247 262 269 280 280 262 245 236 235 234 239
60 62 68 67 61 54 53 52 48 47 54 58 64 91 109 144 187 239 241 242 244 245 253 259 263 267 263 262 260 251 245 238 242 254 261 253 250 248 257 259 235 231 238
63 59 62 65 63 57 53 50 52 52 58 58 54 59 74 75 39 271 306 292 297 313 292 290 289 286 281 300 332 302 289 291 298 298 276 269 262 255 249 247 247 244 238
68 65 64 65 64 61 55 48 45 45 47 50 38 30 32 30 347 327 288 231 259 256 249 254 267 281 279 292 295 288 281 278 280 278 268 266 263 261 261 261 257 249 246